owner,sensor,date,latitude,longitude,vertical_datum,mass_concentration_of_oxygen_in_sea_water,qcFlag 
SCCF RECON,ioos:station:SCCF:13:1,2015-01-01T00:00:00Z,26.5255,-82.0032,2.613,6.97,1111122 
SCCF RECON,ioos:station:SCCF:13:1,2015-01-01T01:00:00Z,26.5255,-82.0032,2.67,6.86,1111122 
SCCF RECON,ioos:station:SCCF:13:1,2015-01-01T02:00:00Z,26.5255,-82.0032,2.68,6.74,1111122 
SCCF RECON,ioos:station:SCCF:13:1,2015-01-01T03:00:00Z,26.5255,-82.0032,2.68,6.92,1111122 
SCCF RECON,ioos:station:SCCF:13:1,2015-01-01T04:00:00Z,26.5255,-82.0032,2.682,6.86,1111122 
SCCF RECON,ioos:station:SCCF:13:1,2015-01-01T05:00:00Z,26.5255,-82.0032,2.61,6.73,1111122 
SCCF RECON,ioos:station:SCCF:13:1,2015-01-01T06:00:00Z,26.5255,-82.0032,2.48,6.44,1111122 
SCCF RECON,ioos:station:SCCF:13:1,2015-01-01T07:00:00Z,26.5255,-82.0032,2.36,6.51,1111122 
SCCF RECON,ioos:station:SCCF:13:1,2015-01-01T08:00:00Z,26.5255,-82.0032,2.275,6.56,1111122 
SCCF RECON,ioos:station:SCCF:13:1,2015-01-01T09:00:00Z,26.5255,-82.0032,2.191,6.53,1111122 
SCCF RECON,ioos:station:SCCF:13:1,2015-01-01T10:00:00Z,26.5255,-82.0032,2.139,6.46,1111122 
SCCF RECON,ioos:station:SCCF:13:1,2015-01-01T11:00:00Z,26.5255,-82.0032,2.14,6.36,1111122 
SCCF RECON,ioos:station:SCCF:13:1,2015-01-01T12:00:00Z,26.5255,-82.0032,2.256,6.4,1111122 
SCCF RECON,ioos:station:SCCF:13:1,2015-01-01T13:00:00Z,26.5255,-82.0032,2.357,6.42,1111122 
SCCF RECON,ioos:station:SCCF:13:1,2015-01-01T14:00:00Z,26.5255,-82.0032,2.41,5.9,1111122 
SCCF RECON,ioos:station:SCCF:13:1,2015-01-01T15:00:00Z,26.5255,-82.0032,2.47,6.24,1111122 
SCCF RECON,ioos:station:SCCF:13:1,2015-01-01T16:00:00Z,26.5255,-82.0032,2.53,6.32,1111122 
SCCF RECON,ioos:station:SCCF:13:1,2015-01-01T17:00:00Z,26.5255,-82.0032,2.542,6.46,1111122 
SCCF RECON,ioos:station:SCCF:13:1,2015-01-01T18:00:00Z,26.5255,-82.0032,2.529,6.7,1111122 
SCCF RECON,ioos:station:SCCF:13:1,2015-01-01T19:00:00Z,26.5255,-82.0032,2.494,6.73,1111122 
SCCF RECON,ioos:station:SCCF:13:1,2015-01-01T20:00:00Z,26.5255,-82.0032,2.463,6.93,1111122 
SCCF RECON,ioos:station:SCCF:13:1,2015-01-01T21:00:00Z,26.5255,-82.0032,2.45,6.65,1111122 
SCCF RECON,ioos:station:SCCF:13:1,2015-01-01T22:00:00Z,26.5255,-82.0032,2.475,6.63,1111122 
SCCF RECON,ioos:station:SCCF:13:1,2015-01-01T23:00:00Z,26.5255,-82.0032,2.54,6.74,1111122 
SCCF RECON,ioos:station:SCCF:13:1,2015-01-02T00:00:00Z,26.5255,-82.0032,2.632,6.84,1111122 
SCCF RECON,ioos:station:SCCF:13:1,2015-01-02T01:00:00Z,26.5255,-82.0032,2.711,6.92,1111122 
SCCF RECON,ioos:station:SCCF:13:1,2015-01-02T02:00:00Z,26.5255,-82.0032,2.75,6.76,1111122 
SCCF RECON,ioos:station:SCCF:13:1,2015-01-02T03:00:00Z,26.5255,-82.0032,2.785,6.75,1111122 
SCCF RECON,ioos:station:SCCF:13:1,2015-01-02T04:00:00Z,26.5255,-82.0032,2.81,6.86,1111122 
SCCF RECON,ioos:station:SCCF:13:1,2015-01-02T05:00:00Z,26.5255,-82.0032,2.78,6.7,1111122 
SCCF RECON,ioos:station:SCCF:13:1,2015-01-02T06:00:00Z,26.5255,-82.0032,2.66,6.6,1111122 
SCCF RECON,ioos:station:SCCF:13:1,2015-01-02T07:00:00Z,26.5255,-82.0032,2.53,6.42,1111122 
SCCF RECON,ioos:station:SCCF:13:1,2015-01-02T08:00:00Z,26.5255,-82.0032,2.43,6.39,1111122 
SCCF RECON,ioos:station:SCCF:13:1,2015-01-02T09:00:00Z,26.5255,-82.0032,2.34,6.33,1111122 
SCCF RECON,ioos:station:SCCF:13:1,2015-01-02T10:00:00Z,26.5255,-82.0032,2.24,6.35,1111122 
SCCF RECON,ioos:station:SCCF:13:1,2015-01-02T11:00:00Z,26.5255,-82.0032,2.181,6.27,1111122 
SCCF RECON,ioos:station:SCCF:13:1,2015-01-02T12:00:00Z,26.5255,-82.0032,2.2,6.3,1111122 
SCCF RECON,ioos:station:SCCF:13:1,2015-01-02T13:00:00Z,26.5255,-82.0032,2.34,6.31,1111122 
SCCF RECON,ioos:station:SCCF:13:1,2015-01-02T14:00:00Z,26.5255,-82.0032,2.45,6.26,1111122 
SCCF RECON,ioos:station:SCCF:13:1,2015-01-02T15:00:00Z,26.5255,-82.0032,2.509,5.81,1111122 
SCCF RECON,ioos:station:SCCF:13:1,2015-01-02T16:00:00Z,26.5255,-82.0032,2.559,6.06,1111122 
SCCF RECON,ioos:station:SCCF:13:1,2015-01-02T17:00:00Z,26.5255,-82.0032,2.6,6.3,1111122 
SCCF RECON,ioos:station:SCCF:13:1,2015-01-02T18:00:00Z,26.5255,-82.0032,2.598,6.67,1111122 
SCCF RECON,ioos:station:SCCF:13:1,2015-01-02T19:00:00Z,26.5255,-82.0032,2.568,6.85,1111122 
SCCF RECON,ioos:station:SCCF:13:1,2015-01-02T20:00:00Z,26.5255,-82.0032,2.536,6.94,1111122 
SCCF RECON,ioos:station:SCCF:13:1,2015-01-02T21:00:00Z,26.5255,-82.0032,2.51,6.77,1111122 
SCCF RECON,ioos:station:SCCF:13:1,2015-01-02T22:00:00Z,26.5255,-82.0032,2.472,6.88,1111122 
SCCF RECON,ioos:station:SCCF:13:1,2015-01-02T23:00:00Z,26.5255,-82.0032,2.495,6.48,1111122 
SCCF RECON,ioos:station:SCCF:13:1,2015-01-03T00:00:00Z,26.5255,-82.0032,2.561,6.36,1111122 
SCCF RECON,ioos:station:SCCF:13:1,2015-01-03T01:00:00Z,26.5255,-82.0032,2.66,6.33,1111122 
SCCF RECON,ioos:station:SCCF:13:1,2015-01-03T02:00:00Z,26.5255,-82.0032,2.722,6.77,1111122 
SCCF RECON,ioos:station:SCCF:13:1,2015-01-03T03:00:00Z,26.5255,-82.0032,2.761,6.93,1111122 
SCCF RECON,ioos:station:SCCF:13:1,2015-01-03T04:00:00Z,26.5255,-82.0032,2.81,6.65,1111122 
SCCF RECON,ioos:station:SCCF:13:1,2015-01-03T05:00:00Z,26.5255,-82.0032,2.81,6.7,1111122 
SCCF RECON,ioos:station:SCCF:13:1,2015-01-03T06:00:00Z,26.5255,-82.0032,2.723,6.7,1111122 
SCCF RECON,ioos:station:SCCF:13:1,2015-01-03T07:00:00Z,26.5255,-82.0032,2.585,6.48,1111122 
SCCF RECON,ioos:station:SCCF:13:1,2015-01-03T08:00:00Z,26.5255,-82.0032,2.47,6.42,1111122 
SCCF RECON,ioos:station:SCCF:13:1,2015-01-03T09:00:00Z,26.5255,-82.0032,2.383,6.27,1111122 
SCCF RECON,ioos:station:SCCF:13:1,2015-01-03T10:00:00Z,26.5255,-82.0032,2.285,6.23,1111122 
SCCF RECON,ioos:station:SCCF:13:1,2015-01-03T11:00:00Z,26.5255,-82.0032,2.199,6.19,1111122 
SCCF RECON,ioos:station:SCCF:13:1,2015-01-03T12:00:00Z,26.5255,-82.0032,2.151,6.11,1111122 
SCCF RECON,ioos:station:SCCF:13:1,2015-01-03T13:00:00Z,26.5255,-82.0032,2.238,6.09,1111122 
SCCF RECON,ioos:station:SCCF:13:1,2015-01-03T14:00:00Z,26.5255,-82.0032,2.382,6.13,1111122 
SCCF RECON,ioos:station:SCCF:13:1,2015-01-03T15:00:00Z,26.5255,-82.0032,2.479,6.01,1111122 
SCCF RECON,ioos:station:SCCF:13:1,2015-01-03T16:00:00Z,26.5255,-82.0032,2.54,6.11,1111122 
SCCF RECON,ioos:station:SCCF:13:1,2015-01-03T17:00:00Z,26.5255,-82.0032,2.608,6.39,1111122 
SCCF RECON,ioos:station:SCCF:13:1,2015-01-03T18:00:00Z,26.5255,-82.0032,2.648,6.66,1111122 
SCCF RECON,ioos:station:SCCF:13:1,2015-01-03T19:00:00Z,26.5255,-82.0032,2.639,6.86,1111122 
SCCF RECON,ioos:station:SCCF:13:1,2015-01-03T20:00:00Z,26.5255,-82.0032,2.617,7.08,1111122 
SCCF RECON,ioos:station:SCCF:13:1,2015-01-03T21:00:00Z,26.5255,-82.0032,2.603,7.22,1111122 
SCCF RECON,ioos:station:SCCF:13:1,2015-01-03T22:00:00Z,26.5255,-82.0032,2.58,7.23,1111122 
SCCF RECON,ioos:station:SCCF:13:1,2015-01-03T23:00:00Z,26.5255,-82.0032,2.556,7.08,1111122 
SCCF RECON,ioos:station:SCCF:13:1,2015-01-04T00:00:00Z,26.5255,-82.0032,2.58,6.82,1111122 
SCCF RECON,ioos:station:SCCF:13:1,2015-01-04T01:00:00Z,26.5255,-82.0032,2.68,6.55,1111122 
SCCF RECON,ioos:station:SCCF:13:1,2015-01-04T02:00:00Z,26.5255,-82.0032,2.775,6.84,1111122 
SCCF RECON,ioos:station:SCCF:13:1,2015-01-04T03:00:00Z,26.5255,-82.0032,2.841,7.0,1111122 
SCCF RECON,ioos:station:SCCF:13:1,2015-01-04T04:00:00Z,26.5255,-82.0032,2.891,6.82,1111122 
SCCF RECON,ioos:station:SCCF:13:1,2015-01-04T05:00:00Z,26.5255,-82.0032,2.93,6.78,1111122 
SCCF RECON,ioos:station:SCCF:13:1,2015-01-04T06:00:00Z,26.5255,-82.0032,2.902,6.85,1111122 
SCCF RECON,ioos:station:SCCF:13:1,2015-01-04T07:00:00Z,26.5255,-82.0032,2.79,6.73,1111122 
SCCF RECON,ioos:station:SCCF:13:1,2015-01-04T08:00:00Z,26.5255,-82.0032,2.66,6.48,1111122 
SCCF RECON,ioos:station:SCCF:13:1,2015-01-04T09:00:00Z,26.5255,-82.0032,2.55,6.35,1111122 
SCCF RECON,ioos:station:SCCF:13:1,2015-01-04T10:00:00Z,26.5255,-82.0032,2.46,6.34,1111122 
SCCF RECON,ioos:station:SCCF:13:1,2015-01-04T11:00:00Z,26.5255,-82.0032,2.36,6.23,1111122 
SCCF RECON,ioos:station:SCCF:13:1,2015-01-04T12:00:00Z,26.5255,-82.0032,2.28,6.21,1111122 
SCCF RECON,ioos:station:SCCF:13:1,2015-01-04T13:00:00Z,26.5255,-82.0032,2.244,6.15,1111122 
SCCF RECON,ioos:station:SCCF:13:1,2015-01-04T14:00:00Z,26.5255,-82.0032,2.35,6.15,1111122 
SCCF RECON,ioos:station:SCCF:13:1,2015-01-04T15:00:00Z,26.5255,-82.0032,2.49,6.24,1111122 
SCCF RECON,ioos:station:SCCF:13:1,2015-01-04T16:00:00Z,26.5255,-82.0032,2.563,5.99,1111122 
SCCF RECON,ioos:station:SCCF:13:1,2015-01-04T17:00:00Z,26.5255,-82.0032,2.615,6.38,1111122 
SCCF RECON,ioos:station:SCCF:13:1,2015-01-04T18:00:00Z,26.5255,-82.0032,2.651,6.51,1111122 
SCCF RECON,ioos:station:SCCF:13:1,2015-01-04T19:00:00Z,26.5255,-82.0032,2.653,6.74,1111122 
SCCF RECON,ioos:station:SCCF:13:1,2015-01-04T20:00:00Z,26.5255,-82.0032,2.63,7.03,1111122 
SCCF RECON,ioos:station:SCCF:13:1,2015-01-04T21:00:00Z,26.5255,-82.0032,2.589,7.24,1111122 
SCCF RECON,ioos:station:SCCF:13:1,2015-01-04T22:00:00Z,26.5255,-82.0032,2.543,6.71,1111122 
SCCF RECON,ioos:station:SCCF:13:1,2015-01-04T23:00:00Z,26.5255,-82.0032,2.5,6.59,1111122 
SCCF RECON,ioos:station:SCCF:13:1,2015-01-05T00:00:00Z,26.5255,-82.0032,2.48,6.6,1111122 
SCCF RECON,ioos:station:SCCF:13:1,2015-01-05T01:00:00Z,26.5255,-82.0032,2.5,6.5,1111122 
SCCF RECON,ioos:station:SCCF:13:1,2015-01-05T02:00:00Z,26.5255,-82.0032,2.6,6.23,1111122 
SCCF RECON,ioos:station:SCCF:13:1,2015-01-05T03:00:00Z,26.5255,-82.0032,2.704,6.04,1111122 
SCCF RECON,ioos:station:SCCF:13:1,2015-01-05T04:00:00Z,26.5255,-82.0032,2.77,6.39,1111122 
SCCF RECON,ioos:station:SCCF:13:1,2015-01-05T05:00:00Z,26.5255,-82.0032,2.8,6.84,1111122 
SCCF RECON,ioos:station:SCCF:13:1,2015-01-05T06:00:00Z,26.5255,-82.0032,2.8,6.67,1111122 
SCCF RECON,ioos:station:SCCF:13:1,2015-01-05T07:00:00Z,26.5255,-82.0032,2.73,6.57,1111122 
SCCF RECON,ioos:station:SCCF:13:1,2015-01-05T08:00:00Z,26.5255,-82.0032,2.62,6.36,1111122 
SCCF RECON,ioos:station:SCCF:13:1,2015-01-05T09:00:00Z,26.5255,-82.0032,2.501,6.18,1111122 
SCCF RECON,ioos:station:SCCF:13:1,2015-01-05T10:00:00Z,26.5255,-82.0032,2.403,6.09,1111122 
SCCF RECON,ioos:station:SCCF:13:1,2015-01-05T11:00:00Z,26.5255,-82.0032,2.32,6.12,1111122 
SCCF RECON,ioos:station:SCCF:13:1,2015-01-05T12:00:00Z,26.5255,-82.0032,2.23,6.06,1111122 
SCCF RECON,ioos:station:SCCF:13:1,2015-01-05T13:00:00Z,26.5255,-82.0032,2.171,6.06,1111122 
SCCF RECON,ioos:station:SCCF:13:1,2015-01-05T14:00:00Z,26.5255,-82.0032,2.2,6.08,1111122 
SCCF RECON,ioos:station:SCCF:13:1,2015-01-05T15:00:00Z,26.5255,-82.0032,2.34,6.14,1111122 
SCCF RECON,ioos:station:SCCF:13:1,2015-01-05T16:00:00Z,26.5255,-82.0032,2.451,6.26,1111122 
SCCF RECON,ioos:station:SCCF:13:1,2015-01-05T17:00:00Z,26.5255,-82.0032,2.52,5.98,1111122 
SCCF RECON,ioos:station:SCCF:13:1,2015-01-05T18:00:00Z,26.5255,-82.0032,2.57,6.0,1111122 
SCCF RECON,ioos:station:SCCF:13:1,2015-01-05T19:00:00Z,26.5255,-82.0032,2.582,6.09,1111122 
SCCF RECON,ioos:station:SCCF:13:1,2015-01-05T20:00:00Z,26.5255,-82.0032,2.54,6.31,1111122 
SCCF RECON,ioos:station:SCCF:13:1,2015-01-05T21:00:00Z,26.5255,-82.0032,2.45,6.42,1111122 
SCCF RECON,ioos:station:SCCF:13:1,2015-01-05T22:00:00Z,26.5255,-82.0032,2.39,6.4,1111122 
SCCF RECON,ioos:station:SCCF:13:1,2015-01-05T23:00:00Z,26.5255,-82.0032,2.36,6.33,1111122 
SCCF RECON,ioos:station:SCCF:13:1,2015-01-06T00:00:00Z,26.5255,-82.0032,2.34,6.58,1111122 
SCCF RECON,ioos:station:SCCF:13:1,2015-01-06T01:00:00Z,26.5255,-82.0032,2.35,6.58,1111122 
SCCF RECON,ioos:station:SCCF:13:1,2015-01-06T02:00:00Z,26.5255,-82.0032,2.43,6.48,1111122 
SCCF RECON,ioos:station:SCCF:13:1,2015-01-06T03:00:00Z,26.5255,-82.0032,2.53,5.95,1111122 
SCCF RECON,ioos:station:SCCF:13:1,2015-01-06T04:00:00Z,26.5255,-82.0032,2.609,6.33,1111122 
SCCF RECON,ioos:station:SCCF:13:1,2015-01-06T05:00:00Z,26.5255,-82.0032,2.655,6.51,1111122 
SCCF RECON,ioos:station:SCCF:13:1,2015-01-06T06:00:00Z,26.5255,-82.0032,2.67,6.48,1111122 
SCCF RECON,ioos:station:SCCF:13:1,2015-01-06T07:00:00Z,26.5255,-82.0032,2.64,6.56,1111122 
SCCF RECON,ioos:station:SCCF:13:1,2015-01-06T08:00:00Z,26.5255,-82.0032,2.55,6.47,1111122 
SCCF RECON,ioos:station:SCCF:13:1,2015-01-06T09:00:00Z,26.5255,-82.0032,2.438,6.31,1111122 
SCCF RECON,ioos:station:SCCF:13:1,2015-01-06T10:00:00Z,26.5255,-82.0032,2.34,6.21,1111122 
SCCF RECON,ioos:station:SCCF:13:1,2015-01-06T11:00:00Z,26.5255,-82.0032,2.251,6.43,1111122 
SCCF RECON,ioos:station:SCCF:13:1,2015-01-06T12:00:00Z,26.5255,-82.0032,2.17,6.45,1111122 
SCCF RECON,ioos:station:SCCF:13:1,2015-01-06T13:00:00Z,26.5255,-82.0032,2.1,6.52,1111122 
SCCF RECON,ioos:station:SCCF:13:1,2015-01-06T14:00:00Z,26.5255,-82.0032,2.079,6.6,1111122 
SCCF RECON,ioos:station:SCCF:13:1,2015-01-06T15:00:00Z,26.5255,-82.0032,2.18,6.62,1111122 
SCCF RECON,ioos:station:SCCF:13:1,2015-01-06T16:00:00Z,26.5255,-82.0032,2.3,6.68,1111122 
SCCF RECON,ioos:station:SCCF:13:1,2015-01-06T17:00:00Z,26.5255,-82.0032,2.379,6.64,1111122 
SCCF RECON,ioos:station:SCCF:13:1,2015-01-06T18:00:00Z,26.5255,-82.0032,2.43,6.26,1111122 
SCCF RECON,ioos:station:SCCF:13:1,2015-01-06T19:00:00Z,26.5255,-82.0032,2.468,6.41,1111122 
SCCF RECON,ioos:station:SCCF:13:1,2015-01-06T20:00:00Z,26.5255,-82.0032,2.49,6.84,1111122 
SCCF RECON,ioos:station:SCCF:13:1,2015-01-06T21:00:00Z,26.5255,-82.0032,2.5,6.91,1111122 
SCCF RECON,ioos:station:SCCF:13:1,2015-01-06T22:00:00Z,26.5255,-82.0032,2.462,6.96,1111122 
SCCF RECON,ioos:station:SCCF:13:1,2015-01-06T23:00:00Z,26.5255,-82.0032,2.4,6.88,1111122 
SCCF RECON,ioos:station:SCCF:13:1,2015-01-07T00:00:00Z,26.5255,-82.0032,2.35,6.81,1111122 
SCCF RECON,ioos:station:SCCF:13:1,2015-01-07T01:00:00Z,26.5255,-82.0032,2.3,6.38,1111122 
SCCF RECON,ioos:station:SCCF:13:1,2015-01-07T02:00:00Z,26.5255,-82.0032,2.31,6.46,1111122 
SCCF RECON,ioos:station:SCCF:13:1,2015-01-07T03:00:00Z,26.5255,-82.0032,2.42,6.42,1111122 
SCCF RECON,ioos:station:SCCF:13:1,2015-01-07T04:00:00Z,26.5255,-82.0032,2.56,6.23,1111122 
SCCF RECON,ioos:station:SCCF:13:1,2015-01-07T05:00:00Z,26.5255,-82.0032,2.64,6.57,1111122 
SCCF RECON,ioos:station:SCCF:13:1,2015-01-07T06:00:00Z,26.5255,-82.0032,2.68,6.77,1111122 
SCCF RECON,ioos:station:SCCF:13:1,2015-01-07T07:00:00Z,26.5255,-82.0032,2.681,6.55,1111122 
SCCF RECON,ioos:station:SCCF:13:1,2015-01-07T08:00:00Z,26.5255,-82.0032,2.612,6.48,1111122 
SCCF RECON,ioos:station:SCCF:13:1,2015-01-07T09:00:00Z,26.5255,-82.0032,2.51,6.41,1111122 
SCCF RECON,ioos:station:SCCF:13:1,2015-01-07T10:00:00Z,26.5255,-82.0032,2.42,6.3,1111122 
SCCF RECON,ioos:station:SCCF:13:1,2015-01-07T11:00:00Z,26.5255,-82.0032,2.348,6.25,1111122 
SCCF RECON,ioos:station:SCCF:13:1,2015-01-07T12:00:00Z,26.5255,-82.0032,2.266,6.4,1111122 
SCCF RECON,ioos:station:SCCF:13:1,2015-01-07T13:00:00Z,26.5255,-82.0032,2.18,6.36,1111122 
SCCF RECON,ioos:station:SCCF:13:1,2015-01-07T14:00:00Z,26.5255,-82.0032,2.113,6.64,1111122 
SCCF RECON,ioos:station:SCCF:13:1,2015-01-07T15:00:00Z,26.5255,-82.0032,2.1,6.72,1111122 
SCCF RECON,ioos:station:SCCF:13:1,2015-01-07T16:00:00Z,26.5255,-82.0032,2.22,6.89,1111122 
SCCF RECON,ioos:station:SCCF:13:1,2015-01-07T17:00:00Z,26.5255,-82.0032,2.344,6.79,1111122 
SCCF RECON,ioos:station:SCCF:13:1,2015-01-07T18:00:00Z,26.5255,-82.0032,2.404,6.76,1111122 
SCCF RECON,ioos:station:SCCF:13:1,2015-01-07T19:00:00Z,26.5255,-82.0032,2.46,6.45,1111122 
SCCF RECON,ioos:station:SCCF:13:1,2015-01-07T20:00:00Z,26.5255,-82.0032,2.513,6.81,1111122 
SCCF RECON,ioos:station:SCCF:13:1,2015-01-07T21:00:00Z,26.5255,-82.0032,2.52,7.1,1111122 
SCCF RECON,ioos:station:SCCF:13:1,2015-01-07T22:00:00Z,26.5255,-82.0032,2.47,7.11,1111122 
SCCF RECON,ioos:station:SCCF:13:1,2015-01-07T23:00:00Z,26.5255,-82.0032,2.411,6.9,1111122 
SCCF RECON,ioos:station:SCCF:13:1,2015-01-08T00:00:00Z,26.5255,-82.0032,2.36,6.87,1111122 
SCCF RECON,ioos:station:SCCF:13:1,2015-01-08T01:00:00Z,26.5255,-82.0032,2.312,6.6,1111122 
SCCF RECON,ioos:station:SCCF:13:1,2015-01-08T02:00:00Z,26.5255,-82.0032,2.32,6.69,1111122 
SCCF RECON,ioos:station:SCCF:13:1,2015-01-08T03:00:00Z,26.5255,-82.0032,2.34,6.88,1111122 
SCCF RECON,ioos:station:SCCF:13:1,2015-01-08T04:00:00Z,26.5255,-82.0032,2.41,6.84,1111122 
SCCF RECON,ioos:station:SCCF:13:1,2015-01-08T05:00:00Z,26.5255,-82.0032,2.51,6.37,1111122 
SCCF RECON,ioos:station:SCCF:13:1,2015-01-08T06:00:00Z,26.5255,-82.0032,2.58,6.51,1111122 
SCCF RECON,ioos:station:SCCF:13:1,2015-01-08T07:00:00Z,26.5255,-82.0032,2.57,6.8,1111122 
SCCF RECON,ioos:station:SCCF:13:1,2015-01-08T08:00:00Z,26.5255,-82.0032,2.5,6.84,1111122 
SCCF RECON,ioos:station:SCCF:13:1,2015-01-08T09:00:00Z,26.5255,-82.0032,2.402,6.7,1111122 
SCCF RECON,ioos:station:SCCF:13:1,2015-01-08T10:00:00Z,26.5255,-82.0032,2.316,6.53,1111122 
SCCF RECON,ioos:station:SCCF:13:1,2015-01-08T11:00:00Z,26.5255,-82.0032,2.24,6.8,1111122 
SCCF RECON,ioos:station:SCCF:13:1,2015-01-08T12:00:00Z,26.5255,-82.0032,2.153,7.09,1111122 
SCCF RECON,ioos:station:SCCF:13:1,2015-01-08T13:00:00Z,26.5255,-82.0032,2.071,7.08,1111122 
SCCF RECON,ioos:station:SCCF:13:1,2015-01-08T14:00:00Z,26.5255,-82.0032,1.99,7.34,1111122 
SCCF RECON,ioos:station:SCCF:13:1,2015-01-08T15:00:00Z,26.5255,-82.0032,1.94,7.36,1111122 
SCCF RECON,ioos:station:SCCF:13:1,2015-01-08T16:00:00Z,26.5255,-82.0032,1.979,7.49,1111122 
SCCF RECON,ioos:station:SCCF:13:1,2015-01-08T17:00:00Z,26.5255,-82.0032,2.11,7.62,1111122 
SCCF RECON,ioos:station:SCCF:13:1,2015-01-08T18:00:00Z,26.5255,-82.0032,2.208,7.62,1111122 
SCCF RECON,ioos:station:SCCF:13:1,2015-01-08T19:00:00Z,26.5255,-82.0032,2.26,7.91,1111122 
SCCF RECON,ioos:station:SCCF:13:1,2015-01-08T20:00:00Z,26.5255,-82.0032,2.322,7.38,1111122 
SCCF RECON,ioos:station:SCCF:13:1,2015-01-08T21:00:00Z,26.5255,-82.0032,2.387,7.66,1111122 
SCCF RECON,ioos:station:SCCF:13:1,2015-01-08T22:00:00Z,26.5255,-82.0032,2.42,7.51,1111122 
SCCF RECON,ioos:station:SCCF:13:1,2015-01-08T23:00:00Z,26.5255,-82.0032,2.41,7.38,1111122 
SCCF RECON,ioos:station:SCCF:13:1,2015-01-09T00:00:00Z,26.5255,-82.0032,2.374,7.36,1111122 
SCCF RECON,ioos:station:SCCF:13:1,2015-01-09T01:00:00Z,26.5255,-82.0032,2.33,7.27,1111122 
SCCF RECON,ioos:station:SCCF:13:1,2015-01-09T02:00:00Z,26.5255,-82.0032,2.319,7.16,1111122 
SCCF RECON,ioos:station:SCCF:13:1,2015-01-09T03:00:00Z,26.5255,-82.0032,2.36,6.91,1111122 
SCCF RECON,ioos:station:SCCF:13:1,2015-01-09T04:00:00Z,26.5255,-82.0032,2.44,7.31,1111122 
SCCF RECON,ioos:station:SCCF:13:1,2015-01-09T05:00:00Z,26.5255,-82.0032,2.53,7.39,1111122 
SCCF RECON,ioos:station:SCCF:13:1,2015-01-09T06:00:00Z,26.5255,-82.0032,2.607,7.25,1111122 
SCCF RECON,ioos:station:SCCF:13:1,2015-01-09T07:00:00Z,26.5255,-82.0032,2.64,7.11,1111122 
SCCF RECON,ioos:station:SCCF:13:1,2015-01-09T08:00:00Z,26.5255,-82.0032,2.652,7.11,1111122 
SCCF RECON,ioos:station:SCCF:13:1,2015-01-09T09:00:00Z,26.5255,-82.0032,2.63,7.08,1111122 
SCCF RECON,ioos:station:SCCF:13:1,2015-01-09T10:00:00Z,26.5255,-82.0032,2.57,6.96,1111122 
SCCF RECON,ioos:station:SCCF:13:1,2015-01-09T11:00:00Z,26.5255,-82.0032,2.5,7.07,1111122 
SCCF RECON,ioos:station:SCCF:13:1,2015-01-09T12:00:00Z,26.5255,-82.0032,2.427,6.95,1111122 
SCCF RECON,ioos:station:SCCF:13:1,2015-01-09T13:00:00Z,26.5255,-82.0032,2.35,7.27,1111122 
SCCF RECON,ioos:station:SCCF:13:1,2015-01-09T14:00:00Z,26.5255,-82.0032,2.29,7.33,1111122 
SCCF RECON,ioos:station:SCCF:13:1,2015-01-09T15:00:00Z,26.5255,-82.0032,2.251,7.48,1111122 
SCCF RECON,ioos:station:SCCF:13:1,2015-01-09T16:00:00Z,26.5255,-82.0032,2.28,7.56,1111122 
SCCF RECON,ioos:station:SCCF:13:1,2015-01-09T17:00:00Z,26.5255,-82.0032,2.38,7.59,1111122 
SCCF RECON,ioos:station:SCCF:13:1,2015-01-09T18:00:00Z,26.5255,-82.0032,2.45,7.58,1111122 
SCCF RECON,ioos:station:SCCF:13:1,2015-01-09T19:00:00Z,26.5255,-82.0032,2.494,7.34,1111122 
SCCF RECON,ioos:station:SCCF:13:1,2015-01-09T20:00:00Z,26.5255,-82.0032,2.54,7.26,1111122 
SCCF RECON,ioos:station:SCCF:13:1,2015-01-09T21:00:00Z,26.5255,-82.0032,2.579,7.34,1111122 
SCCF RECON,ioos:station:SCCF:13:1,2015-01-09T22:00:00Z,26.5255,-82.0032,2.579,7.64,1111122 
SCCF RECON,ioos:station:SCCF:13:1,2015-01-09T23:00:00Z,26.5255,-82.0032,2.513,7.51,1111122 
SCCF RECON,ioos:station:SCCF:13:1,2015-01-10T00:00:00Z,26.5255,-82.0032,2.43,7.47,1111122 
SCCF RECON,ioos:station:SCCF:13:1,2015-01-10T01:00:00Z,26.5255,-82.0032,2.39,7.26,1111122 
SCCF RECON,ioos:station:SCCF:13:1,2015-01-10T02:00:00Z,26.5255,-82.0032,2.351,7.48,1111122 
SCCF RECON,ioos:station:SCCF:13:1,2015-01-10T03:00:00Z,26.5255,-82.0032,2.32,7.52,1111122 
SCCF RECON,ioos:station:SCCF:13:1,2015-01-10T04:00:00Z,26.5255,-82.0032,2.3,7.53,1111122 
SCCF RECON,ioos:station:SCCF:13:1,2015-01-10T05:00:00Z,26.5255,-82.0032,2.36,7.76,1111122 
SCCF RECON,ioos:station:SCCF:13:1,2015-01-10T06:00:00Z,26.5255,-82.0032,2.47,7.62,1111122 
SCCF RECON,ioos:station:SCCF:13:1,2015-01-10T07:00:00Z,26.5255,-82.0032,2.53,7.17,1111122 
SCCF RECON,ioos:station:SCCF:13:1,2015-01-10T08:00:00Z,26.5255,-82.0032,2.52,7.19,1111122 
SCCF RECON,ioos:station:SCCF:13:1,2015-01-10T09:00:00Z,26.5255,-82.0032,2.49,7.15,1111122 
SCCF RECON,ioos:station:SCCF:13:1,2015-01-10T10:00:00Z,26.5255,-82.0032,2.45,7.09,1111122 
SCCF RECON,ioos:station:SCCF:13:1,2015-01-10T11:00:00Z,26.5255,-82.0032,2.42,7.14,1111122 
SCCF RECON,ioos:station:SCCF:13:1,2015-01-10T12:00:00Z,26.5255,-82.0032,2.35,7.23,1111122 
SCCF RECON,ioos:station:SCCF:13:1,2015-01-10T13:00:00Z,26.5255,-82.0032,2.28,7.41,1111122 
SCCF RECON,ioos:station:SCCF:13:1,2015-01-10T14:00:00Z,26.5255,-82.0032,2.209,7.77,1111122 
SCCF RECON,ioos:station:SCCF:13:1,2015-01-10T15:00:00Z,26.5255,-82.0032,2.15,7.93,1111122 
SCCF RECON,ioos:station:SCCF:13:1,2015-01-10T16:00:00Z,26.5255,-82.0032,2.12,8.12,1111122 
SCCF RECON,ioos:station:SCCF:13:1,2015-01-10T17:00:00Z,26.5255,-82.0032,2.224,8.26,1111122 
SCCF RECON,ioos:station:SCCF:13:1,2015-01-10T18:00:00Z,26.5255,-82.0032,2.31,8.28,1111122 
SCCF RECON,ioos:station:SCCF:13:1,2015-01-10T19:00:00Z,26.5255,-82.0032,2.39,8.37,1111122 
SCCF RECON,ioos:station:SCCF:13:1,2015-01-10T20:00:00Z,26.5255,-82.0032,2.44,7.63,1111122 
SCCF RECON,ioos:station:SCCF:13:1,2015-01-10T21:00:00Z,26.5255,-82.0032,2.48,7.76,1111122 
SCCF RECON,ioos:station:SCCF:13:1,2015-01-10T22:00:00Z,26.5255,-82.0032,2.53,7.99,1111122 
SCCF RECON,ioos:station:SCCF:13:1,2015-01-10T23:00:00Z,26.5255,-82.0032,2.532,7.85,1111122 
SCCF RECON,ioos:station:SCCF:13:1,2015-01-12T00:00:00Z,26.5255,-82.0032,2.65,8.05,1111122 
SCCF RECON,ioos:station:SCCF:13:1,2015-01-12T01:00:00Z,26.5255,-82.0032,2.59,7.86,1111122 
SCCF RECON,ioos:station:SCCF:13:1,2015-01-13T00:00:00Z,26.5255,-82.0032,2.69,7.78,1111122 
SCCF RECON,ioos:station:SCCF:13:1,2015-01-13T01:00:00Z,26.5255,-82.0032,2.619,7.62,1111122 
SCCF RECON,ioos:station:SCCF:13:1,2015-01-13T02:00:00Z,26.5255,-82.0032,2.56,7.49,1111122 
SCCF RECON,ioos:station:SCCF:13:1,2015-01-13T03:00:00Z,26.5255,-82.0032,2.49,7.33,1111122 
SCCF RECON,ioos:station:SCCF:13:1,2015-01-13T04:00:00Z,26.5255,-82.0032,2.42,7.48,1111122 
SCCF RECON,ioos:station:SCCF:13:1,2015-01-13T05:00:00Z,26.5255,-82.0032,2.36,7.56,1111122 
SCCF RECON,ioos:station:SCCF:13:1,2015-01-13T06:00:00Z,26.5255,-82.0032,2.301,7.55,1111122 
SCCF RECON,ioos:station:SCCF:13:1,2015-01-13T07:00:00Z,26.5255,-82.0032,2.25,7.55,1111122 
SCCF RECON,ioos:station:SCCF:13:1,2015-01-13T08:00:00Z,26.5255,-82.0032,2.29,7.52,1111122 
SCCF RECON,ioos:station:SCCF:13:1,2015-01-13T09:00:00Z,26.5255,-82.0032,2.4,7.52,1111122 
SCCF RECON,ioos:station:SCCF:13:1,2015-01-13T10:00:00Z,26.5255,-82.0032,2.469,7.02,1111122 
SCCF RECON,ioos:station:SCCF:13:1,2015-01-13T11:00:00Z,26.5255,-82.0032,2.499,7.14,1111122 
SCCF RECON,ioos:station:SCCF:13:1,2015-01-13T12:00:00Z,26.5255,-82.0032,2.52,7.08,1111122 
SCCF RECON,ioos:station:SCCF:13:1,2015-01-13T13:00:00Z,26.5255,-82.0032,2.524,7.06,1111122 
SCCF RECON,ioos:station:SCCF:13:1,2015-01-13T14:00:00Z,26.5255,-82.0032,2.49,7.01,1111122 
SCCF RECON,ioos:station:SCCF:13:1,2015-01-13T17:00:00Z,26.5255,-82.0032,2.37,7.14,1111122 
SCCF RECON,ioos:station:SCCF:13:1,2015-01-13T18:00:00Z,26.5255,-82.0032,2.349,7.44,1111122 
SCCF RECON,ioos:station:SCCF:13:1,2015-01-13T19:00:00Z,26.5255,-82.0032,2.409,7.53,1111122 
SCCF RECON,ioos:station:SCCF:13:1,2015-01-13T20:00:00Z,26.5255,-82.0032,2.507,7.45,1111122 